[[{"header":{"parameterUnit":"m.s-1","parameterCategory":1,"la1":30.2991,"la2":30.254,"lo1":-89.0895,"lo2":-89.0444,"dy":0.0017,"dx":0.0017,"nx":28,"ny":28,"refTime":"2025-08-21T03:00:00:Z","depth":0,"parameterNumber":2,"parameterNumberName":"U-component_of_WINDS"},"data":[0,0,0,0,0,0,0,0,0,0,0,0,0,0,0,0,0,0,0,0,0,0,0,0,0,0,0,0,0,0,0,0,0,0,0,0,0,0,0,0,0,0,0,0,0,0,0,0,0,0,0,0,0,0,0,0,0,0,-0.2155,-0.2155,0,-0.2102,-0.2101,-0.21,-0.2121,-0.2122,-0.2124,-0.2125,-0.2063,-0.206,-0.2057,0,0,0,0,0,0,0,0,0,0,0,0,0,-0.227,-0.2268,-0.2156,-0.2155,-0.2154,-0.2102,-0.2101,-0.21,-0.2121,-0.2123,-0.2124,-0.2126,-0.2064,-0.206,-0.2057,0,0,0,0,0,0,0,0,0,0,0,0,0,-0.2219,-0.2267,-0.2156,-0.2158,-0.2158,-0.2102,-0.2101,-0.21,-0.2121,-0.2123,-0.2124,-0.2126,-0.2065,-0.206,-0.2056,-0.1992,0,0,-0.2043,-0.2041,0,0,0,0,0,0,0,0,-0.2222,-0.2214,-0.2159,-0.2158,-0.2158,-0.212,-0.2119,-0.2064,-0.212,-0.2135,-0.2125,-0.2127,-0.208,-0.2074,-0.206,-0.1989,-0.1986,-0.2043,-0.204,-0.2038,-0.2037,0,0,0,0,0,0,0,-0.2225,-0.2217,-0.2134,-0.2158,-0.2157,-0.216,-0.2155,-0.2108,-0.2097,-0.2134,-0.2135,-0.2129,-0.208,-0.2064,-0.2059,-0.1985,-0.2043,-0.2039,-0.2037,-0.2035,-0.1859,-0.1857,0,0,0,0,0,0,-0.223,-0.222,-0.2136,-0.2132,-0.2195,-0.2157,-0.2151,-0.213,-0.2098,-0.2095,-0.2127,-0.213,-0.207,-0.2064,-0.2056,-0.1979,-0.2039,-0.2035,-0.2032,-0.1861,-0.1859,-0.1857,0,0,0,0,0,0,-0.2232,-0.2222,-0.2138,-0.2176,-0.2166,-0.2153,-0.2129,-0.2128,-0.2112,-0.2093,-0.209,-0.2113,-0.2072,-0.2062,-0.2008,-0.1977,-0.2033,-0.2029,-0.1864,-0.1861,-0.1858,-0.1824,0,0,0,0,0,0,-0.2235,-0.2223,-0.2199,-0.2176,-0.2164,-0.2092,-0.2128,-0.2126,-0.2106,-0.2109,-0.2079,-0.2076,-0.2072,-0.2015,-0.2004,-0.1972,-0.2025,-0.1867,-0.1862,-0.1859,-0.1828,-0.182,-0.1813,0,0,0,0,0,-0.2239,-0.219,-0.2198,-0.2188,-0.2135,-0.2091,-0.2084,-0.2082,-0.2103,-0.2079,-0.2067,-0.2077,-0.1983,-0.2009,-0.1997,-0.1964,-0.1869,-0.1864,-0.1859,-0.1831,-0.1821,-0.1813,0,0,0,0,0,0,-0.2208,-0.2187,-0.2196,-0.2138,-0.2116,-0.2094,-0.2063,-0.2072,-0.2042,-0.2046,-0.2043,-0.2037,-0.1981,-0.1967,-0.1997,-0.19,-0.1928,-0.1921,-0.1911,-0.1902,-0.1895,-0.1899,-0.2022,0,0,0,0,0,-0.2195,-0.2163,-0.2146,-0.2096,-0.2085,-0.2076,-0.2057,-0.2058,-0.2034,-0.2025,-0.2008,-0.1983,-0.1948,-0.1924,-0.189,-0.1826,-0.1819,-0.1797,-0.179,-0.1784,-0.1777,-0.1742,-0.1732,-0.1841,-0.1841,-0.1841,0,0,-0.2166,-0.2151,-0.213,-0.209,-0.2073,-0.2038,-0.2068,-0.203,-0.2003,-0.2018,-0.1967,-0.1954,-0.1925,-0.1866,-0.1839,-0.1852,-0.1746,-0.1778,-0.1774,-0.177,-0.1736,-0.1726,-0.1717,-0.1838,-0.1838,-0.1839,0,0,-0.2096,-0.2082,-0.204,-0.2023,-0.1998,-0.1993,-0.1983,-0.196,-0.1953,-0.1902,-0.1913,-0.188,-0.1819,-0.1799,-0.178,-0.1705,-0.1713,-0.1694,-0.1655,-0.1621,-0.1612,-0.1605,-0.1577,-0.1567,-0.1687,-0.1687,-0.1687,0,-0.2063,-0.2013,-0.2016,-0.1977,-0.1959,-0.1974,-0.193,-0.1913,-0.1877,-0.1863,-0.188,-0.1805,-0.1786,-0.1723,-0.1705,-0.1689,-0.1676,-0.1696,-0.1614,-0.1606,-0.1599,-0.1573,-0.1562,-0.1685,-0.1685,-0.1685,-0.1686,0,-0.1973,-0.1938,-0.1906,-0.1875,-0.1853,-0.1812,-0.1807,-0.1784,-0.1788,-0.178,-0.1728,-0.1707,-0.167,-0.1655,-0.1656,-0.1591,-0.16,-0.1615,-0.1644,-0.1587,-0.1562,-0.1551,-0.1682,-0.1683,-0.1683,-0.1684,0,0,-0.1879,-0.1853,-0.1841,-0.1827,-0.1802,-0.1774,-0.1733,-0.1699,-0.1679,-0.1654,-0.1619,-0.1568,-0.1583,-0.1562,-0.1562,-0.1532,-0.1473,-0.155,-0.155,-0.1536,-0.1398,-0.1386,-0.1375,-0.1479,-0.1477,-0.1475,-0.14,0,-0.1807,-0.1738,-0.1741,-0.1675,-0.1643,-0.1657,-0.1622,-0.1601,-0.1594,-0.1563,-0.1553,-0.1518,-0.154,-0.1527,-0.1498,-0.1486,-0.1445,-0.1491,-0.1444,-0.1442,-0.145,-0.1362,-0.1349,-0.1279,-0.1391,-0.1389,-0.1388,0,-0.1713,-0.1689,-0.1621,-0.1602,-0.1588,-0.1556,-0.1526,-0.1497,-0.1474,-0.1471,-0.1448,-0.1453,-0.141,-0.1441,-0.1381,-0.1413,-0.1393,-0.1384,-0.1382,-0.1376,-0.1411,-0.1353,-0.1257,-0.1246,-0.1373,-0.1374,-0.1375,0,-0.1651,-0.1601,-0.1554,-0.1542,-0.1518,-0.1496,-0.1484,-0.1464,-0.1443,-0.1416,-0.1403,-0.137,-0.1351,-0.1325,-0.132,-0.1344,-0.1259,-0.129,-0.1253,-0.1253,-0.1234,-0.1235,-0.1133,-0.1223,-0.1223,-0.1223,-0.1224,0,-0.1569,-0.1527,-0.1526,-0.1497,-0.145,-0.1453,-0.1406,-0.1396,-0.1378,-0.1346,-0.1356,-0.1325,-0.1321,-0.1289,-0.1285,-0.1235,-0.1227,-0.1221,-0.122,-0.122,-0.122,-0.1206,-0.121,-0.1221,-0.1221,-0.1222,-0.1222,0,-0.1491,-0.1489,-0.1439,-0.1423,-0.1417,-0.1383,-0.1367,-0.1339,-0.1333,-0.1293,-0.1283,-0.1273,-0.1236,-0.1229,-0.1184,-0.1181,-0.1122,-0.1126,-0.113,-0.113,-0.1094,-0.1097,-0.0978,-0.0962,-0.1064,-0.1063,-0.1062,0,-0.1439,-0.1407,-0.1388,-0.1369,-0.1357,-0.1326,-0.1306,-0.1307,-0.1286,-0.1259,-0.1233,-0.1198,-0.1169,-0.1109,-0.1095,-0.1061,-0.1064,-0.1025,-0.1059,-0.106,-0.1063,-0.1064,-0.1061,-0.1018,-0.1017,-0.1016,-0.1015,0,-0.1346,-0.1347,-0.132,-0.1292,-0.1269,-0.1247,-0.1226,-0.1209,-0.1207,-0.1182,-0.1146,-0.1125,-0.1081,-0.1044,-0.1011,-0.0997,-0.1005,-0.1005,-0.0995,-0.0993,-0.0996,-0.0993,-0.1112,-0.1007,-0.1008,-0.1009,-0.1009,-0.1009,-0.1278,-0.1251,-0.1234,-0.1203,-0.1188,-0.1169,-0.1142,-0.1134,-0.1104,-0.107,-0.1073,-0.1032,-0.101,-0.0966,-0.095,-0.0917,-0.093,-0.0915,-0.091,-0.0906,-0.0903,-0.1003,-0.0911,-0.0911,-0.0912,-0.0912,-0.0912,0,-0.1185,-0.1176,-0.1148,-0.1119,-0.1095,-0.1108,-0.1086,-0.1064,-0.1029,-0.1009,-0.0982,-0.094,-0.0906,-0.0891,-0.0857,-0.0833,-0.0836,-0.0824,-0.0825,-0.0821,-0.0894,-0.0906,-0.0822,-0.0822,-0.0822,-0.0822,-0.0822,-0.0822,-0.1134,-0.1089,-0.1088,-0.1035,-0.1025,-0.0988,-0.0974,-0.0956,-0.094,-0.0894,-0.0866,-0.0858,-0.084,-0.0804,-0.0773,-0.0769,-0.0756,-0.0742,-0.0739,-0.0807,-0.0816,-0.0825,-0.0836,-0.0739,-0.0739,-0.0669,-0.0669,-0.0668]},{"header":{"parameterUnit":"m.s-1","parameterCategory":1,"la1":30.2991,"la2":30.254,"lo1":-89.0895,"lo2":-89.0444,"dy":0.0017,"dx":0.0017,"nx":28,"ny":28,"refTime":"2025-08-21T03:00:00:Z","depth":0,"parameterNumber":3,"parameterNumberName":"V-component_of_WINDS"},"data":[0,0,0,0,0,0,0,0,0,0,0,0,0,0,0,0,0,0,0,0,0,0,0,0,0,0,0,0,0,0,0,0,0,0,0,0,0,0,0,0,0,0,0,0,0,0,0,0,0,0,0,0,0,0,0,0,0,0,0.7407,0.7407,0,0.7368,0.7368,0.7367,0.7271,0.7269,0.7267,0.7265,0.7228,0.7229,0.723,0,0,0,0,0,0,0,0,0,0,0,0,0,0.7401,0.7401,0.7407,0.7406,0.7406,0.7368,0.7368,0.7367,0.7271,0.7269,0.7266,0.7264,0.7227,0.7229,0.723,0,0,0,0,0,0,0,0,0,0,0,0,0,0.7387,0.7402,0.7407,0.7354,0.7348,0.7368,0.7368,0.7367,0.7272,0.7269,0.7266,0.7263,0.7227,0.7228,0.723,0.7299,0,0,0.7234,0.7235,0,0,0,0,0,0,0,0,0.7388,0.7387,0.7362,0.7357,0.7351,0.7321,0.7352,0.7344,0.7273,0.7301,0.7265,0.7261,0.7262,0.726,0.7259,0.7298,0.7296,0.7234,0.7235,0.7236,0.7236,0,0,0,0,0,0,0,0.7389,0.7388,0.7392,0.7362,0.7355,0.7332,0.7327,0.735,0.7299,0.7298,0.7291,0.7288,0.7258,0.7258,0.7258,0.7295,0.7234,0.7235,0.7236,0.7237,0.7389,0.7393,0,0,0,0,0,0,0.7397,0.739,0.7393,0.739,0.7362,0.7335,0.7329,0.7334,0.7298,0.729,0.729,0.7283,0.7257,0.7256,0.7256,0.7335,0.7235,0.7237,0.7238,0.7386,0.739,0.7394,0,0,0,0,0,0,0.7398,0.7398,0.7394,0.7388,0.7386,0.7338,0.7345,0.7335,0.7335,0.7292,0.7283,0.73,0.7255,0.7254,0.7289,0.7333,0.7237,0.7239,0.7382,0.7387,0.7392,0.7495,0,0,0,0,0,0,0.7398,0.7399,0.7424,0.7389,0.7387,0.7428,0.7347,0.7336,0.7337,0.7328,0.7299,0.7291,0.7253,0.7288,0.7291,0.7333,0.724,0.7378,0.7385,0.739,0.7487,0.7503,0.7516,0,0,0,0,0,0.7398,0.7455,0.7426,0.7427,0.7417,0.743,0.7429,0.7383,0.7341,0.7367,0.7339,0.7292,0.7328,0.7292,0.7295,0.7338,0.7375,0.7383,0.739,0.7481,0.75,0.7515,0,0,0,0,0,0,0.7497,0.745,0.7417,0.7465,0.7452,0.7414,0.7445,0.7404,0.7403,0.7395,0.7338,0.7332,0.7376,0.736,0.7321,0.7404,0.7344,0.7352,0.7412,0.7429,0.7443,0.7446,0.7241,0,0,0,0,0,0.7525,0.7539,0.7497,0.7543,0.7538,0.7493,0.7497,0.7462,0.7448,0.7442,0.7417,0.7406,0.7414,0.7421,0.7426,0.7485,0.7477,0.7516,0.753,0.7542,0.755,0.758,0.7597,0.7418,0.7418,0.7417,0,0,0.7582,0.7557,0.757,0.7562,0.7548,0.7565,0.7489,0.751,0.7522,0.7445,0.7477,0.7459,0.7442,0.7489,0.7508,0.7477,0.7597,0.7551,0.7561,0.7562,0.7589,0.7606,0.7621,0.7423,0.7422,0.7421,0,0,0.7694,0.7676,0.7713,0.7701,0.7681,0.765,0.766,0.7628,0.7612,0.7643,0.7586,0.76,0.7616,0.7606,0.7604,0.7713,0.767,0.7717,0.7791,0.7821,0.7835,0.7847,0.7887,0.7902,0.7724,0.7725,0.7725,0,0.7767,0.7789,0.7737,0.7762,0.776,0.7692,0.7729,0.772,0.7703,0.7705,0.767,0.7688,0.7672,0.7716,0.7743,0.7743,0.7752,0.7719,0.7837,0.7849,0.7859,0.7897,0.7912,0.773,0.773,0.7729,0.7729,0,0.788,0.7896,0.7928,0.7913,0.7916,0.7947,0.7901,0.791,0.7876,0.7849,0.7882,0.786,0.786,0.7868,0.7835,0.7908,0.7889,0.7847,0.7786,0.7883,0.7917,0.7931,0.7739,0.7737,0.7735,0.7734,0,0,0.8053,0.801,0.8022,0.8015,0.7988,0.8,0.8029,0.8028,0.8037,0.8028,0.8051,0.8066,0.8026,0.8023,0.7989,0.8015,0.8104,0.7969,0.7968,0.7996,0.8184,0.8217,0.8234,0.8075,0.8078,0.808,0.8186,0,0.8159,0.8203,0.8158,0.8213,0.8227,0.8163,0.8187,0.8174,0.8151,0.8161,0.8135,0.8147,0.8093,0.8091,0.8115,0.8089,0.8141,0.808,0.8097,0.8098,0.8103,0.8252,0.8286,0.8387,0.8199,0.8201,0.8203,0,0.8287,0.8284,0.834,0.831,0.8314,0.8337,0.8333,0.8343,0.8328,0.8309,0.8306,0.8264,0.8291,0.8231,0.8267,0.8227,0.8231,0.822,0.8222,0.8222,0.8157,0.8256,0.8418,0.8434,0.8223,0.8221,0.822,0,0.8409,0.8418,0.8452,0.8448,0.8414,0.8432,0.8419,0.84,0.8403,0.84,0.8401,0.8402,0.8403,0.8405,0.8364,0.8325,0.8407,0.8343,0.8392,0.8394,0.8412,0.8412,0.8578,0.8415,0.8415,0.8415,0.8414,0,0.8531,0.8568,0.8506,0.8528,0.8567,0.8516,0.8557,0.8537,0.8521,0.8538,0.8483,0.8501,0.8446,0.8458,0.8427,0.8462,0.8463,0.8449,0.844,0.8454,0.8456,0.8456,0.8448,0.8419,0.8418,0.8417,0.8416,0,0.8673,0.8633,0.8666,0.8632,0.8624,0.8655,0.8625,0.8644,0.8617,0.864,0.8642,0.86,0.8612,0.8572,0.8577,0.8556,0.8608,0.8588,0.8613,0.8607,0.8659,0.8655,0.8831,0.8852,0.8676,0.8678,0.8679,0,0.8754,0.878,0.8748,0.8755,0.8745,0.8757,0.876,0.8711,0.8716,0.8701,0.8722,0.8729,0.8731,0.8753,0.8724,0.8727,0.8707,0.8768,0.8707,0.8721,0.8708,0.8707,0.871,0.8781,0.8784,0.8785,0.8787,0,0.8901,0.888,0.8885,0.8885,0.8889,0.8886,0.8879,0.8888,0.8836,0.8845,0.8855,0.8857,0.8862,0.887,0.8868,0.8855,0.8813,0.8806,0.8818,0.8832,0.8846,0.884,0.8648,0.8802,0.8801,0.88,0.8799,0.8798,0.9015,0.9036,0.9017,0.9025,0.9014,0.901,0.9026,0.9001,0.9009,0.9008,0.8979,0.8996,0.8981,0.8973,0.8965,0.8979,0.895,0.8967,0.8971,0.8976,0.8985,0.8844,0.8978,0.8978,0.8977,0.8977,0.8976,0,0.916,0.9145,0.9152,0.9144,0.9151,0.911,0.91,0.9109,0.9124,0.9113,0.9117,0.913,0.9138,0.911,0.9113,0.913,0.911,0.9132,0.9131,0.9129,0.901,0.9,0.9148,0.9148,0.9148,0.9148,0.9148,0.9148,0.9236,0.9269,0.9247,0.9275,0.9259,0.9275,0.9273,0.9269,0.926,0.9277,0.9282,0.9264,0.9246,0.9248,0.9254,0.9245,0.925,0.9279,0.9264,0.9154,0.9137,0.9121,0.9111,0.928,0.928,0.9381,0.9382,0.9383]}]]